GW2746 Weather Reports


Display with metric or nautical units.
time (UTC)temp
F
wind
direction
speed
MPH
gust
MPH
rain 1hr
in
rain 24hr
in
rain mn
in
humidity
%
barometer
mb
20260901143630 82 189 1.0 5.0 0.00 0.00 0.00 65 1014.0
20260901143127 82 224 1.0 7.0 0.00 0.00 0.00 65 1014.0
20260901142634 82 172 1.0 7.0 0.00 0.00 0.00 65 1014.0
20260901142115 82 135 3.0 5.0 0.00 0.00 0.00 65 1014.1
20260901141622 82 285 0.0 4.0 0.00 0.00 0.00 66 1014.2
20260901141120 82 248 2.0 3.0 0.00 0.00 0.00 66 1014.2
20260901140623 82 217 2.0 5.0 0.00 0.00 0.00 66 1014.2
20260901140122 82 281 2.0 5.0 0.00 0.00 0.00 66 1014.2
20260901135628 81 216 0.0 4.0 0.00 0.00 0.00 67 1014.1
20260901135125 81 187 1.0 5.0 0.00 0.00 0.00 69 1014.2
20260901134649 81 196 0.0 6.0 0.00 0.00 0.00 68 1014.2
20260901134146 80 183 3.0 6.0 0.00 0.00 0.00 68 1014.1
20260901133631 80 219 2.0 5.0 0.00 0.00 0.00 69 1014.1
20260901133124 79 131 1.0 4.0 0.00 0.00 0.00 71 1014.1
20260901132629 79 203 0.0 4.0 0.00 0.00 0.00 73 1014.2
20260901132130 79 161 0.0 4.0 0.00 0.00 0.00 73 1014.2
20260901131617 79 192 1.0 4.0 0.00 0.00 0.00 73 1014.2
20260901131132 79 192 0.0 4.0 0.00 0.00 0.00 73 1014.2
20260901130619 78 192 1.0 5.0 0.00 0.00 0.00 74 1014.1
20260901130116 78 192 0.0 5.0 0.00 0.00 0.00 74 1014.1
20260901125642 78 179 1.0 3.0 0.00 0.00 0.00 74 1014.1
20260901125118 78 212 1.0 3.0 0.00 0.00 0.00 74 1014.0
20260901124622 78 195 1.0 3.0 0.00 0.00 0.00 74 1013.8
20260901124120 78 226 0.0 4.0 0.00 0.00 0.00 74 1013.9
20260901123625 77 226 1.0 4.0 0.00 0.00 0.00 75 1013.8
20260901123127 77 174 0.0 4.0 0.00 0.00 0.00 75 1013.7
20260901122631 77 174 1.0 2.0 0.00 0.00 0.00 76 1013.6
20260901122129 77 174 1.0 2.0 0.00 0.00 0.00 76 1013.6
20260901121632 77 127 1.0 2.0 0.00 0.00 0.00 76 1013.5
20260901121132 77 187 0.0 0.0 0.00 0.00 0.00 76 1013.4
20260901120641 77 187 0.0 2.0 0.00 0.00 0.00 76 1013.3
20260901120127 77 187 0.0 2.0 0.00 0.00 0.00 76 1013.4
20260901115629 77 187 0.0 2.0 0.00 0.00 0.00 76 1013.3
20260901115147 77 187 0.0 0.0 0.00 0.00 0.00 77 1013.3
20260901114633 77 187 0.0 0.0 0.00 0.00 0.00 78 1013.4
20260901114131 77 187 0.0 1.0 0.00 0.00 0.00 78 1013.4
20260901113655 77 187 0.0 4.0 0.00 0.00 0.00 77 1013.4
20260901113132 77 187 1.0 4.0 0.00 0.00 0.00 77 1013.5
20260901112638 77 187 0.0 3.0 0.00 0.00 0.00 78 1013.5
20260901112137 77 187 0.0 3.0 0.00 0.00 0.00 78 1013.5
20260901111641 77 198 0.0 0.0 0.00 0.00 0.00 78 1013.5
20260901111119 77 198 0.0 0.0 0.00 0.00 0.00 79 1013.6
20260901110624 77 198 0.0 0.0 0.00 0.00 0.00 78 1013.6
20260901110124 78 198 0.0 0.0 0.00 0.00 0.00 79 1013.6
20260901105651 78 198 0.0 0.0 0.00 0.00 0.00 79 1013.6
20260901105127 78 198 0.0 0.0 0.00 0.00 0.00 79 1013.5
20260901104615 78 176 0.0 0.0 0.00 0.00 0.00 81 1013.4
20260901104136 78 176 0.0 2.0 0.00 0.00 0.00 81 1013.4
20260901103619 78 176 0.0 2.0 0.00 0.00 0.00 82 1013.5
20260901103120 77 176 0.0 2.0 0.00 0.00 0.00 82 1013.5
20260901102625 77 176 2.0 2.0 0.00 0.00 0.00 83 1013.5
20260901102125 77 40 1.0 2.0 0.00 0.00 0.00 84 1013.6
20260901101649 77 40 1.0 2.0 0.00 0.00 0.00 84 1013.6
20260901101127 77 40 0.0 1.0 0.00 0.00 0.00 85 1013.6
20260901100617 77 40 0.0 0.0 0.00 0.00 0.00 85 1013.7
20260901100118 77 40 0.0 1.0 0.00 0.00 0.00 85 1013.8
20260901095622 77 40 0.0 1.0 0.00 0.00 0.00 85 1013.8
20260901095120 77 40 0.0 1.0 0.00 0.00 0.00 85 1013.8
20260901094628 77 40 0.0 0.0 0.00 0.00 0.00 85 1013.8
20260901094128 77 40 0.0 0.0 0.00 0.00 0.00 85 1013.7
20260901093635 77 40 0.0 1.0 0.00 0.00 0.00 86 1013.8
20260901093133 77 40 0.0 2.0 0.00 0.00 0.00 86 1013.8
20260901092621 77 40 1.0 2.0 0.00 0.00 0.00 87 1013.8
20260901092120 77 40 0.0 1.0 0.00 0.00 0.00 88 1013.7
20260901091624 77 40 0.0 2.0 0.00 0.00 0.00 89 1013.7
20260901091122 76 40 0.0 2.0 0.00 0.00 0.00 89 1013.8
20260901090645 76 40 0.0 2.0 0.00 0.00 0.00 90 1013.8
20260901090122 76 40 0.0 2.0 0.00 0.00 0.00 90 1013.8
20260901085626 76 40 0.0 0.0 0.00 0.00 0.00 90 1013.8
20260901085117 76 40 0.0 1.0 0.00 0.00 0.00 90 1013.7
20260901084645 76 40 0.0 1.0 0.00 0.00 0.00 90 1013.7
20260901084143 76 40 0.0 2.0 0.00 0.00 0.00 90 1013.7
20260901083626 76 40 1.0 2.0 0.00 0.00 0.00 90 1013.7
20260901083123 76 40 0.0 1.0 0.00 0.00 0.00 90 1013.6
20260901082626 76 40 0.0 2.0 0.00 0.00 0.00 90 1013.6
20260901082125 76 40 0.0 2.0 0.00 0.00 0.00 90 1013.7
20260901081633 76 40 0.0 2.0 0.00 0.00 0.00 90 1013.7
20260901081116 76 40 0.0 2.0 0.00 0.00 0.00 90 1013.7
20260901080622 76 40 0.0 2.0 0.00 0.00 0.00 90 1013.7
20260901080122 77 40 0.0 2.0 0.00 0.00 0.00 90 1013.8
20260901075630 77 40 0.0 1.0 0.00 0.00 0.00 90 1013.8
20260901075127 77 40 0.0 3.0 0.00 0.00 0.00 90 1013.8
20260901074629 77 40 1.0 3.0 0.00 0.00 0.00 90 1013.8
20260901074127 77 40 0.0 3.0 0.00 0.00 0.00 90 1013.8
20260901073630 77 67 1.0 3.0 0.00 0.00 0.00 90 1013.8
20260901073129 77 50 0.0 2.0 0.00 0.00 0.00 90 1013.8
20260901072633 77 50 1.0 3.0 0.00 0.00 0.00 90 1013.9
20260901072115 77 50 1.0 3.0 0.00 0.00 0.00 90 1013.8
20260901071620 77 98 0.0 2.0 0.00 0.00 0.00 90 1013.9
20260901071139 77 98 1.0 4.0 0.00 0.00 0.00 89 1013.9
20260901070622 78 98 1.0 4.0 0.00 0.00 0.00 89 1014.0
20260901070117 78 82 1.0 3.0 0.00 0.00 0.00 89 1014.0
20260901065621 78 82 1.0 2.0 0.00 0.00 0.00 89 1014.0
20260901065120 78 82 1.0 3.0 0.00 0.00 0.00 89 1014.0
20260901064626 78 82 0.0 3.0 0.00 0.00 0.00 89 1013.9
20260901064124 78 82 1.0 2.0 0.00 0.00 0.00 88 1013.9
20260901063629 78 82 0.0 4.0 0.00 0.00 0.00 88 1014.0
20260901063127 78 108 1.0 4.0 0.00 0.00 0.00 88 1014.0
20260901062631 78 63 1.0 3.0 0.00 0.00 0.00 88 1014.1
20260901062128 78 88 1.0 2.0 0.00 0.00 0.00 88 1014.1
20260901061630 79 88 1.0 2.0 0.00 0.00 0.00 88 1014.1
20260901061128 79 88 0.0 1.0 0.00 0.00 0.00 88 1014.2
20260901060635 79 88 0.0 2.0 0.00 0.00 0.00 87 1014.2
20260901060133 79 88 0.0 2.0 0.00 0.00 0.00 87 1014.1
20260901055621 79 88 0.0 2.0 0.00 0.00 0.00 86 1014.1
20260901055118 79 88 0.0 2.0 0.00 0.00 0.00 86 1014.2
20260901054622 79 88 0.0 0.0 0.00 0.00 0.00 86 1014.2
20260901054119 79 88 0.0 1.0 0.00 0.00 0.00 86 1014.2
20260901053622 79 88 0.0 1.0 0.00 0.00 0.00 86 1014.2
20260901053119 79 88 1.0 2.0 0.00 0.00 0.00 86 1014.3
20260901052622 79 88 0.0 2.0 0.00 0.00 0.00 86 1014.3
20260901052120 79 88 1.0 3.0 0.00 0.00 0.00 86 1014.2
20260901051623 79 88 0.0 3.0 0.00 0.00 0.00 86 1014.2
20260901051121 79 55 0.0 1.0 0.00 0.00 0.00 86 1014.2
20260901050625 79 55 0.0 1.0 0.00 0.00 0.00 86 1014.1
20260901050124 79 55 0.0 0.0 0.00 0.00 0.00 86 1014.2
20260901045638 79 55 0.0 1.0 0.00 0.00 0.00 86 1014.2
20260901045117 80 55 0.0 1.0 0.00 0.00 0.00 86 1014.3
20260901044621 80 55 0.0 1.0 0.00 0.00 0.00 86 1014.3
20260901044118 80 55 0.0 1.0 0.00 0.00 0.00 85 1014.2
20260901043621 80 55 0.0 1.0 0.00 0.00 0.00 85 1014.2
20260901043138 80 55 0.0 1.0 0.00 0.00 0.00 85 1014.2
20260901042623 80 55 0.0 1.0 0.00 0.00 0.00 84 1014.1
20260901042125 80 55 0.0 0.0 0.00 0.00 0.00 84 1014.2
20260901041629 81 55 0.0 1.0 0.00 0.00 0.00 83 1014.2
20260901041127 81 55 0.0 1.0 0.00 0.00 0.00 83 1014.2
20260901040632 81 55 0.0 1.0 0.00 0.00 0.00 83 1014.2
20260901040132 81 55 0.0 0.0 0.00 0.00 0.00 83 1014.3
20260901035620 81 55 0.0 0.0 0.00 0.00 0.00 83 1014.1
20260901035118 81 55 0.0 0.0 0.00 0.00 0.00 82 1014.0
20260901034623 81 55 0.0 0.0 0.00 0.00 0.00 82 1014.0
20260901034145 81 55 0.0 0.0 0.00 0.00 0.00 82 1013.9
20260901033632 81 55 0.0 0.0 0.00 0.00 0.00 82 1013.9
20260901033134 81 55 0.0 0.0 0.00 0.00 0.00 81 1013.8
20260901032619 81 55 0.0 2.0 0.00 0.00 0.00 81 1013.8
20260901032117 81 55 0.0 2.0 0.00 0.00 0.00 81 1013.9
20260901031623 81 55 0.0 2.0 0.00 0.00 0.00 81 1013.8
20260901031120 81 55 1.0 2.0 0.00 0.00 0.00 81 1013.8
20260901030623 82 55 0.0 1.0 0.00 0.00 0.00 81 1013.9
20260901030125 82 55 1.0 2.0 0.00 0.00 0.00 81 1013.8
20260901025629 82 55 1.0 2.0 0.00 0.00 0.00 81 1013.8
20260901025124 82 55 0.0 2.0 0.00 0.00 0.00 81 1013.7
20260901024647 82 55 1.0 2.0 0.00 0.00 0.00 80 1013.6
20260901024124 82 55 1.0 2.0 0.00 0.00 0.00 80 1013.5
20260901023629 82 77 1.0 3.0 0.00 0.00 0.00 80 1013.5
20260901023128 82 77 1.0 3.0 0.00 0.00 0.00 80 1013.4
20260901022631 82 77 0.0 2.0 0.00 0.00 0.00 80 1013.5
20260901022151 83 77 0.0 2.0 0.00 0.00 0.00 80 1013.5
20260901021655 83 77 1.0 2.0 0.00 0.00 0.00 79 1013.4
20260901021153 83 77 0.0 3.0 0.00 0.00 0.00 79 1013.3
20260901020617 83 77 1.0 3.0 0.00 0.00 0.00 79 1013.3
20260901020121 83 67 1.0 3.0 0.00 0.00 0.00 78 1013.3
20260901015623 83 67 1.0 3.0 0.00 0.00 0.00 77 1013.2
20260901015120 83 196 1.0 2.0 0.00 0.00 0.00 77 1013.0
20260901014623 84 196 0.0 0.0 0.00 0.00 0.00 76 1013.0
20260901014120 84 196 0.0 0.0 0.00 0.00 0.00 75 1013.0
20260901013627 84 196 0.0 2.0 0.00 0.00 0.00 74 1013.0
20260901013126 84 196 0.0 2.0 0.00 0.00 0.00 73 1013.0
20260901012630 84 196 0.0 1.0 0.00 0.00 0.00 73 1012.9
20260901012129 85 196 0.0 0.0 0.00 0.00 0.00 73 1012.9
20260901011636 85 196 0.0 1.0 0.00 0.00 0.00 72 1012.9
20260901011132 85 196 0.0 1.0 0.00 0.00 0.00 72 1012.9
20260901010635 86 196 0.0 0.0 0.00 0.00 0.00 72 1013.0
20260901010134 86 196 0.0 0.0 0.00 0.00 0.00 70 1013.1
20260901005637 87 196 0.0 0.0 0.00 0.00 0.00 70 1013.1
20260901005135 87 196 0.0 0.0 0.00 0.00 0.00 70 1013.2
20260901004619 87 196 0.0 0.0 0.00 0.00 0.00 68 1013.1
20260901004118 87 196 0.0 0.0 0.00 0.00 0.00 69 1013.1
20260901003642 88 196 0.0 0.0 0.00 0.00 0.00 68 1013.2
20260901003118 88 196 0.0 0.0 0.00 0.00 0.00 68 1013.2
20260901002622 88 196 0.0 0.0 0.00 0.00 0.00 67 1013.3
20260901002121 88 196 0.0 1.0 0.00 0.00 0.00 67 1013.1
20260901001626 88 196 0.0 2.0 0.00 0.00 0.00 65 1013.1
20260901001147 89 196 1.0 2.0 0.00 0.00 0.00 65 1013.1
20260901000622 88 196 1.0 2.0 0.00 0.00 0.00 66 1013.1
20260901000121 88 196 1.0 3.0 0.00 0.00 0.00 66 1013.1
20260831235648 88 196 2.0 4.0 0.00 0.00 0.00 66 1013.1
20260831235126 88 185 0.0 4.0 0.00 0.00 0.00 67 1013.2
20260831234648 88 185 0.0 2.0 0.00 0.00 0.00 67 1013.1
20260831234124 88 185 0.0 2.0 0.00 0.00 0.00 67 1013.1
20260831233633 88 185 1.0 2.0 0.00 0.00 0.00 67 1013.1
20260831233132 88 185 1.0 2.0 0.00 0.00 0.00 66 1013.2
20260831232635 88 185 1.0 3.0 0.00 0.00 0.00 66 1013.2
20260831232133 88 185 1.0 3.0 0.00 0.00 0.00 66 1013.1
20260831231656 88 221 1.0 3.0 0.00 0.00 0.00 67 1013.1
20260831231133 88 239 0.0 2.0 0.00 0.00 0.00 66 1013.1
20260831230636 88 239 1.0 3.0 0.00 0.00 0.00 66 1013.1
20260831230135 89 239 0.0 3.0 0.00 0.00 0.00 66 1013.1
20260831225625 89 252 0.0 3.0 0.00 0.00 0.00 66 1013.1
20260831225124 89 229 1.0 5.0 0.00 0.00 0.00 66 1013.0
20260831224632 89 229 2.0 5.0 0.00 0.00 0.00 65 1013.1
20260831224127 90 224 1.0 4.0 0.00 0.00 0.00 64 1013.1
20260831223635 90 306 1.0 4.0 0.00 0.00 0.00 64 1013.1
20260831223132 91 231 2.0 5.0 0.00 0.00 0.00 62 1013.1
20260831222635 91 241 1.0 5.0 0.00 0.00 0.00 62 1013.1
20260831222132 91 168 1.0 4.0 0.00 0.00 0.00 62 1013.1
20260831221636 90 222 2.0 4.0 0.00 0.00 0.00 64 1013.1
20260831221135 89 252 1.0 3.0 0.00 0.00 0.00 65 1013.1
20260831220638 89 252 1.0 3.0 0.00 0.00 0.00 65 1013.2
20260831220140 89 194 1.0 4.0 0.00 0.00 0.00 65 1013.2
20260831215623 89 268 3.0 5.0 0.00 0.00 0.00 64 1013.3
20260831215121 89 195 3.0 5.0 0.00 0.00 0.00 64 1013.2
20260831214624 90 214 2.0 4.0 0.00 0.00 0.00 64 1013.3
20260831214125 90 302 3.0 5.0 0.00 0.00 0.00 63 1013.3
20260831213632 90 185 1.0 7.0 0.00 0.00 0.00 63 1013.4
20260831213134 90 175 4.0 7.0 0.00 0.00 0.00 62 1013.4
20260831212622 90 262 3.0 7.0 0.00 0.00 0.00 63 1013.4
20260831212119 90 201 1.0 7.0 0.00 0.00 0.00 64 1013.4
20260831211623 90 270 3.0 7.0 0.00 0.00 0.00 62 1013.4
20260831211122 90 179 2.0 6.0 0.00 0.00 0.00 62 1013.4
20260831210626 90 214 2.0 7.0 0.00 0.00 0.00 61 1013.4
20260831210129 90 188 4.0 7.0 0.00 0.00 0.00 60 1013.4
20260831205636 90 227 4.0 6.0 0.00 0.00 0.00 60 1013.4
20260831205134 90 229 1.0 7.0 0.00 0.00 0.00 61 1013.4
20260831204619 90 271 4.0 7.0 0.00 0.00 0.00 60 1013.5
20260831204120 90 286 4.0 9.0 0.00 0.00 0.00 61 1013.5
20260831203628 90 173 2.0 9.0 0.00 0.00 0.00 63 1013.6
20260831203127 89 213 2.0 8.0 0.00 0.00 0.00 64 1013.6
20260831202630 89 214 2.0 9.0 0.00 0.00 0.00 63 1013.7
20260831202148 89 210 4.0 9.0 0.00 0.00 0.00 63 1013.7
20260831201633 90 197 3.0 7.0 0.00 0.00 0.00 64 1013.6
20260831201135 90 221 4.0 7.0 0.00 0.00 0.00 63 1013.7
20260831200658 90 265 2.0 7.0 0.00 0.00 0.00 64 1013.7
20260831200116 90 262 3.0 7.0 0.00 0.00 0.00 62 1013.7
20260831195622 90 187 3.0 6.0 0.00 0.00 0.00 63 1013.6
20260831195120 91 277 2.0 5.0 0.00 0.00 0.00 63 1013.7
20260831194624 90 295 2.0 5.0 0.00 0.00 0.00 61 1013.6
20260831194125 90 200 2.0 5.0 0.00 0.00 0.00 62 1013.7
20260831193647 90 237 2.0 7.0 0.00 0.00 0.00 61 1013.7
20260831193128 89 235 3.0 7.0 0.00 0.00 0.00 62 1013.7
20260831192634 89 324 2.0 5.0 0.00 0.00 0.00 65 1013.7
20260831192132 89 259 4.0 6.0 0.00 0.00 0.00 63 1013.6
20260831191617 89 193 3.0 6.0 0.00 0.00 0.00 64 1013.6
20260831191138 88 256 2.0 5.0 0.00 0.00 0.00 63 1013.6
20260831190625 88 235 1.0 5.0 0.00 0.00 0.00 64 1013.6
20260831190121 88 231 1.0 4.0 0.00 0.00 0.00 64 1013.6
20260831185623 88 264 3.0 5.0 0.00 0.00 0.00 65 1013.6
20260831185141 88 274 4.0 5.0 0.00 0.00 0.00 64 1013.7
20260831184632 88 356 3.0 5.0 0.00 0.00 0.00 64 1013.6
20260831184153 88 230 2.0 6.0 0.00 0.00 0.00 64 1013.6
20260831183636 88 185 2.0 6.0 0.00 0.00 0.00 63 1013.6
20260831183134 88 268 2.0 5.0 0.00 0.00 0.00 62 1013.5
20260831182641 88 249 1.0 5.0 0.00 0.00 0.00 64 1013.7
20260831182136 88 215 1.0 5.0 0.00 0.00 0.00 65 1013.6
20260831181620 87 285 3.0 6.0 0.00 0.00 0.00 65 1013.7
20260831181119 87 183 3.0 6.0 0.00 0.00 0.00 67 1013.6
20260831180622 86 278 2.0 5.0 0.00 0.00 0.00 68 1013.6
20260831180121 86 243 4.0 6.0 0.00 0.00 0.00 67 1013.6
20260831175645 86 275 2.0 6.0 0.00 0.00 0.00 69 1013.7
20260831175120 86 246 2.0 4.0 0.00 0.00 0.00 69 1013.6
20260831174623 85 164 2.0 5.0 0.00 0.00 0.00 71 1013.6
20260831174141 85 254 2.0 6.0 0.00 0.00 0.00 71 1013.6
20260831173624 85 345 2.0 6.0 0.00 0.00 0.00 71 1013.7
20260831173143 85 234 3.0 4.0 0.00 0.00 0.00 71 1013.7
20260831172626 84 273 0.0 6.0 0.00 0.00 0.00 70 1013.6
20260831172131 85 291 1.0 6.0 0.00 0.00 0.00 70 1013.7
20260831171637 85 325 3.0 5.0 0.00 0.00 0.00 69 1013.6
20260831171135 84 341 1.0 5.0 0.00 0.00 0.00 70 1013.6
20260831170632 84 329 2.0 5.0 0.00 0.00 0.00 69 1013.6
20260831170153 84 38 2.0 6.0 0.00 0.00 0.00 71 1013.5
20260831165637 83 52 2.0 6.0 0.00 0.00 0.00 72 1013.4
20260831165117 83 262 2.0 4.0 0.00 0.00 0.00 70 1013.5
20260831164621 83 1 2.0 6.0 0.00 0.00 0.00 73 1013.5
20260831164123 82 204 3.0 6.0 0.00 0.00 0.00 72 1013.5
20260831163628 82 314 2.0 5.0 0.00 0.00 0.00 73 1013.4
20260831163130 82 275 2.0 4.0 0.00 0.00 0.00 73 1013.4
20260831162634 81 334 2.0 6.0 0.00 0.00 0.00 74 1013.4
20260831162136 81 239 3.0 6.0 0.00 0.00 0.00 73 1013.4
20260831161620 82 24 2.0 4.0 0.00 0.00 0.00 72 1013.3
20260831161119 82 284 2.0 4.0 0.00 0.00 0.00 72 1013.3
20260831160631 82 318 3.0 6.0 0.00 0.00 0.00 72 1013.2
20260831160130 82 281 2.0 7.0 0.00 0.00 0.00 73 1013.0
20260831155617 81 279 3.0 7.0 0.00 0.00 0.00 72 1012.8
20260831155117 81 300 3.0 5.0 0.00 0.00 0.00 73 1012.7
20260831154622 81 339 1.0 4.0 0.00 0.00 0.00 73 1012.6
20260831154120 81 310 3.0 6.0 0.00 0.00 0.00 73 1012.6
20260831153625 81 241 3.0 6.0 0.00 0.00 0.00 74 1012.6
20260831153143 80 256 4.0 8.0 0.00 0.00 0.00 74 1012.8
20260831152625 80 308 4.0 8.0 0.00 0.00 0.00 76 1012.9
20260831152123 79 329 3.0 5.0 0.00 0.00 0.00 78 1012.7
20260831151630 79 325 2.0 7.0 0.00 0.00 0.00 79 1012.7
20260831151129 78 58 3.0 7.0 0.00 0.00 0.00 80 1012.7
20260831150636 78 249 3.0 7.0 0.00 0.00 0.00 80 1012.7
20260831150115 78 304 5.0 7.0 0.00 0.00 0.00 82 1012.8
20260831145622 78 279 5.0 6.0 0.00 0.00 0.00 83 1013.0
20260831145123 78 265 2.0 4.0 0.00 0.00 0.00 83 1012.7
20260831144627 78 265 1.0 3.0 0.00 0.00 0.00 83 1012.4
20260831144125 78 265 1.0 3.0 0.00 0.00 0.00 84 1012.1